Regional Weather Roundup
Issued by NWS

Home | Current Version | Previous Version | Text Only | Print | Product List | Glossary On
Versions: 1 2 3 4 5 6 7 8 9 10 11 12 13 14 15 16 17 18 19 20 21 22 23 24 25 26 27 28 29 30 31 32 33 34 35 36 37 38 39 40 41 42 43 44 45 46 47 48 49 50
000
ASUS44 KBMX 230910
RWRAL

ALABAMA REGIONAL WEATHER ROUNDUP
NATIONAL WEATHER SERVICE BIRMINGHAM AL
300 AM CST THU NOV 23 2017

NOTE: "FAIR" INDICATES FEW OR NO CLOUDS BELOW 12,000 FEET
WITH NO SIGNIFICANT WEATHER AND/OR OBSTRUCTIONS TO VISIBILITY.

THE REMARK "TC" DENOTES TEMPERATURE IN DEGREES CELSIUS.

ALZ001>011-014-016>018-020-231000-
NORTH ALABAMA

CITY           SKY/WX    TMP DP  RH WIND       PRES   REMARKS
MUSCLE SHOALS  CLEAR     27  22  81 CALM      30.15F
HUNTSVILLE     CLEAR     33  26  75 N7        30.13R WCI  27
DECATUR        CLEAR     28  25  88 CALM      30.14F
HALEYVILLE     FAIR      31  26  82 NE6       30.13F WCI  25
GADSDEN        CLEAR     34  28  79 N5        30.12S WCI  30
$$

ALZ012-013-022-023-030>036-040>044-231000-
WEST CENTRAL ALABAMA

CITY           SKY/WX    TMP DP  RH WIND       PRES   REMARKS
TUSCALOOSA     FLURRIES  31  29  92 NW3       30.13S
DEMOPOLIS        N/A     35  29  80 NW5       30.12F WCI  31
$$

ALZ015-024>026-033>036-041>044-231000-
CENTRAL ALABAMA

CITY           SKY/WX    TMP DP  RH WIND       PRES   REMARKS
BIRMINGHAM     CLEAR     31  26  82 CALM      30.12F
MONTGOMERY     CLEAR     37  30  75 CALM      30.09S
SHELBY CO ARPT CLEAR     35  29  78 CALM      30.09F
MAXWELL AFB    CLEAR     40  32  74 N3        30.07F
GREENVILLE     FAIR      40  32  73 N8        30.05F WCI  34
SELMA          FAIR      32  30  93 CALM      30.09F
PRATTVILLE     FAIR      39  31  74 CALM      30.08S
BESSEMER       FAIR      34  27  75 N3        30.10F
TALLADEGA      FAIR      32  31  96 CALM      30.10F
PELL CITY      SUNNY     28  28 100 CALM      30.11S
MARION         FAIR      34  29  83 NW3       30.09S
SYLACAUGA      FAIR      34  32  92 CALM      30.09F
$$

ALZ019-021-028-029-037-038-045>048-231000-
EAST CENTRAL ALABAMA

CITY           SKY/WX    TMP DP  RH WIND       PRES   REMARKS
ANNISTON       CLEAR     35  29  78 NE3       30.09F
ALEXANDER CITY CLEAR     37  30  75 CALM      30.06F
AUBURN         CLEAR     41  31  67 N9        30.06S
$$

ALZ051>064-231000-
SOUTHWEST ALABAMA

CITY           SKY/WX    TMP DP  RH WIND       PRES   REMARKS
MOBILE         CLEAR     43  31  62 N13       30.08F
BROOKLEY FIELD CLEAR     45  35  68 N10       30.08F
EVERGREEN      CLEAR     40  33  76 NW6       30.07F
$$

ALZ049-050-065>069-231000-
SOUTHEAST ALABAMA

CITY           SKY/WX    TMP DP  RH WIND       PRES   REMARKS
DOTHAN         CLOUDY    51  38  60 N7        30.05S
OZARK          CLOUDY    52  36  55 N7        30.02S
TROY           CLOUDY    44  36  73 N6        30.06F
EUFAULA        CLOUDY    50  37  61 CALM      30.03F
$$



USA.gov is the U.S. government's official web portal to all federal, state and local government web resources and services.